SHT4H EGLL-EGAC

Flight info

Callsign SHT4H
Flight time 1h 14m
Altitude 36000
Route ULTIB1J ULTIB T420 TNT UL28 RODOL UM65 TENSO L603 BELOX DCT REMSI DCT NINEB M148 MAGEE DCT
Aircraft A320/M-SDE3FGHIJ1RWXY/S

Departure

Time 2026-04-21 22:03
Airport London Heathrow Airport (EGLL)

Arrival

Time 2026-04-21 23:17
Airport George Best Belfast City Airport (EGAC)
Time Latitude Longitude Altitude Speed Heading
2026-04-21 21:37 51.47316 -0.48588 89 ft 0 kts 269°
2026-04-21 21:51 51.47316 -0.48587 86 ft 1 kts 269°
2026-04-21 21:51 51.47316 -0.48555 86 ft 3 kts 269°
2026-04-21 21:51 51.47316 -0.48526 86 ft 3 kts 270°
2026-04-21 21:51 51.47313 -0.48496 86 ft 3 kts 305°
2026-04-21 21:52 51.47300 -0.48477 88 ft 3 kts 346°
2026-04-21 21:52 51.47280 -0.48473 88 ft 3 kts 359°
2026-04-21 21:52 51.47259 -0.48473 86 ft 3 kts 359°
2026-04-21 21:52 51.47242 -0.48473 88 ft 3 kts 359°
2026-04-21 21:53 51.47226 -0.48473 86 ft 0 kts 359°
2026-04-21 21:58 51.47233 -0.48473 86 ft 2 kts 360°
2026-04-21 21:58 51.47256 -0.48463 88 ft 5 kts 33°
2026-04-21 21:58 51.47262 -0.48399 88 ft 7 kts 105°
2026-04-21 21:59 51.47217 -0.48358 86 ft 9 kts 179°
2026-04-21 21:59 51.47145 -0.48358 86 ft 12 kts 180°
2026-04-21 21:59 51.47063 -0.48386 89 ft 13 kts 230°
2026-04-21 21:59 51.46991 -0.48470 87 ft 15 kts 181°
2026-04-21 22:00 51.46881 -0.48471 86 ft 15 kts 180°
2026-04-21 22:00 51.46794 -0.48469 86 ft 13 kts 180°
2026-04-21 22:00 51.46695 -0.48470 88 ft 15 kts 180°
2026-04-21 22:00 51.46610 -0.48469 89 ft 9 kts 179°
2026-04-21 22:01 51.46597 -0.48469 86 ft 1 kts 179°
2026-04-21 22:01 51.46585 -0.48468 90 ft 3 kts 179°
2026-04-21 22:01 51.46534 -0.48468 86 ft 11 kts 179°
2026-04-21 22:01 51.46480 -0.48392 87 ft 2 kts 91°
2026-04-21 22:02 51.46477 -0.48042 87 ft 66 kts 90°
2026-04-21 22:02 51.46480 -0.46967 88 ft 121 kts 90°
2026-04-21 22:02 51.46483 -0.45385 103 ft 160 kts 92°
2026-04-21 22:03 51.46502 -0.43602 639 ft 160 kts 91°
2026-04-21 22:03 51.46593 -0.41807 1203 ft 165 kts 78°
2026-04-21 22:03 51.47167 -0.40064 1414 ft 196 kts 53°
2026-04-21 22:03 51.48111 -0.38300 1649 ft 221 kts 53°
2026-04-21 22:04 51.49162 -0.36316 2041 ft 245 kts 54°
2026-04-21 22:04 51.50295 -0.34162 2668 ft 259 kts 55°
2026-04-21 22:04 51.51500 -0.31860 3310 ft 273 kts 57°
2026-04-21 22:04 51.52460 -0.29248 3984 ft 273 kts 77°
2026-04-21 22:05 51.53125 -0.26388 4681 ft 285 kts 70°
2026-04-21 22:05 51.54391 -0.23772 4956 ft 303 kts 40°
2026-04-21 22:05 51.56332 -0.22450 5269 ft 308 kts
2026-04-21 22:05 51.58446 -0.22751 6076 ft 307 kts 342°
2026-04-21 22:06 51.60539 -0.23504 6928 ft 309 kts 341°
2026-04-21 22:06 51.62550 -0.24654 7732 ft 305 kts 326°
2026-04-21 22:06 51.64396 -0.26342 8521 ft 306 kts 322°
2026-04-21 22:06 51.66234 -0.28091 9281 ft 309 kts 322°
2026-04-21 22:07 51.68087 -0.29873 10024 ft 312 kts 321°
2026-04-21 22:07 51.70008 -0.31744 10286 ft 334 kts 321°
2026-04-21 22:07 51.72059 -0.33759 10478 ft 355 kts 321°
2026-04-21 22:07 51.74227 -0.35872 11034 ft 362 kts 322°
2026-04-21 22:08 51.76400 -0.37972 11682 ft 366 kts 322°
2026-04-21 22:08 51.78598 -0.40080 12332 ft 369 kts 322°
2026-04-21 22:08 51.80818 -0.42209 12968 ft 372 kts 322°
2026-04-21 22:08 51.83053 -0.44363 13612 ft 375 kts 321°
2026-04-21 22:09 51.85291 -0.46528 14284 ft 376 kts 321°
2026-04-21 22:09 51.87544 -0.48710 14908 ft 378 kts 321°
2026-04-21 22:09 51.89804 -0.50909 15508 ft 380 kts 321°
2026-04-21 22:09 51.92070 -0.53120 16104 ft 382 kts 321°
2026-04-21 22:10 51.94349 -0.55348 16673 ft 383 kts 321°
2026-04-21 22:10 51.96639 -0.57589 17229 ft 386 kts 321°
2026-04-21 22:10 51.98948 -0.59848 17810 ft 388 kts 321°
2026-04-21 22:10 52.01264 -0.62115 18387 ft 390 kts 321°
2026-04-21 22:11 52.03604 -0.64414 18848 ft 396 kts 321°
2026-04-21 22:11 52.06008 -0.66776 19363 ft 400 kts 321°
2026-04-21 22:11 52.08398 -0.69126 19915 ft 403 kts 321°
2026-04-21 22:11 52.10806 -0.71495 20457 ft 406 kts 321°
2026-04-21 22:12 52.12406 -0.73072 20788 ft 407 kts 321°
2026-04-21 22:12 52.14839 -0.75470 21304 ft 410 kts 321°
2026-04-21 22:12 52.17291 -0.77885 21790 ft 413 kts 321°
2026-04-21 22:12 52.19815 -0.80376 22279 ft 415 kts 321°
2026-04-21 22:13 52.22289 -0.82824 22745 ft 417 kts 321°
2026-04-21 22:13 52.24773 -0.85282 23187 ft 419 kts 321°
2026-04-21 22:13 52.27240 -0.87727 23627 ft 421 kts 321°
2026-04-21 22:13 52.29747 -0.90214 24058 ft 423 kts 321°
2026-04-21 22:14 52.32305 -0.92756 24470 ft 425 kts 321°
2026-04-21 22:14 52.34838 -0.95275 24848 ft 428 kts 320°
2026-04-21 22:14 52.37389 -0.97816 25219 ft 430 kts 320°
2026-04-21 22:14 52.39949 -1.00371 25582 ft 432 kts 320°
2026-04-21 22:15 52.42523 -1.02947 25937 ft 436 kts 319°
2026-04-21 22:15 52.45110 -1.05542 26280 ft 439 kts 319°
2026-04-21 22:15 52.47720 -1.08168 26661 ft 440 kts 319°
2026-04-21 22:15 52.50337 -1.10802 27041 ft 442 kts 319°
2026-04-21 22:16 52.52959 -1.13440 27386 ft 443 kts 318°
2026-04-21 22:16 52.55593 -1.16099 27695 ft 445 kts 318°
2026-04-21 22:16 52.58238 -1.18771 28015 ft 448 kts 318°
2026-04-21 22:16 52.60895 -1.21455 28321 ft 450 kts 317°
2026-04-21 22:17 52.63573 -1.24160 28632 ft 452 kts 317°
2026-04-21 22:17 52.66256 -1.26870 28931 ft 453 kts 317°
2026-04-21 22:17 52.68942 -1.29594 29283 ft 453 kts 317°
2026-04-21 22:17 52.71622 -1.32309 29694 ft 452 kts 317°
2026-04-21 22:18 52.74301 -1.35030 30070 ft 452 kts 316°
2026-04-21 22:18 52.76970 -1.37749 30443 ft 451 kts 316°
2026-04-21 22:18 52.79681 -1.40511 30817 ft 451 kts 316°
2026-04-21 22:18 52.82341 -1.43231 31186 ft 450 kts 316°
2026-04-21 22:19 52.84966 -1.45927 31562 ft 449 kts 316°
2026-04-21 22:19 52.87649 -1.48687 31958 ft 448 kts 316°
2026-04-21 22:19 52.90263 -1.51376 32324 ft 447 kts 316°
2026-04-21 22:19 52.92908 -1.54095 32688 ft 447 kts 315°
2026-04-21 22:20 52.95583 -1.56848 33071 ft 446 kts 315°
2026-04-21 22:20 52.98212 -1.59557 33442 ft 445 kts 315°
2026-04-21 22:20 53.00842 -1.62273 33813 ft 444 kts 315°
2026-04-21 22:20 53.03463 -1.64988 34161 ft 444 kts 315°
2026-04-21 22:21 53.06082 -1.67705 34447 ft 444 kts 315°
2026-04-21 22:21 53.08694 -1.70417 34762 ft 442 kts 315°
2026-04-21 22:21 53.11301 -1.73127 35058 ft 442 kts 315°
2026-04-21 22:21 53.13908 -1.75845 35374 ft 441 kts 315°
2026-04-21 22:22 53.16511 -1.78555 35669 ft 441 kts 315°
2026-04-21 22:22 53.19106 -1.81263 35786 ft 441 kts 315°
2026-04-21 22:22 53.21715 -1.84002 35797 ft 446 kts 315°
2026-04-21 22:23 53.27053 -1.89476 35778 ft 454 kts 318°
2026-04-21 22:23 53.32623 -1.94687 35754 ft 457 kts 319°
2026-04-21 22:24 53.38192 -1.99809 35736 ft 456 kts 319°
2026-04-21 22:24 53.43731 -2.05041 35695 ft 457 kts 318°
2026-04-21 22:25 53.49222 -2.10322 35704 ft 458 kts 318°
2026-04-21 22:25 53.54781 -2.15715 35712 ft 455 kts 315°
2026-04-21 22:25 53.57272 -2.18835 35715 ft 439 kts 306°
2026-04-21 22:26 53.59369 -2.22460 35717 ft 425 kts 297°
2026-04-21 22:26 53.61055 -2.26436 35715 ft 411 kts 289°
2026-04-21 22:26 53.62340 -2.30668 35716 ft 400 kts 281°
2026-04-21 22:27 53.64339 -2.39365 35701 ft 398 kts 280°
2026-04-21 22:27 53.66332 -2.48070 35686 ft 398 kts 280°
2026-04-21 22:28 53.68315 -2.56786 35676 ft 399 kts 280°
2026-04-21 22:28 53.70287 -2.65489 35668 ft 400 kts 280°
2026-04-21 22:29 53.72267 -2.74252 35667 ft 400 kts 280°
2026-04-21 22:29 53.74243 -2.83038 35661 ft 400 kts 279°
2026-04-21 22:30 53.76213 -2.91840 35650 ft 401 kts 279°
2026-04-21 22:30 53.78179 -3.00667 35642 ft 401 kts 279°
2026-04-21 22:31 53.80141 -3.09526 34976 ft 405 kts 279°
2026-04-21 22:31 53.81123 -3.13931 34818 ft 393 kts 279°
2026-04-21 22:31 53.82081 -3.18190 34740 ft 381 kts 278°
2026-04-21 22:32 53.83910 -3.26461 34580 ft 378 kts 277°
2026-04-21 22:32 53.85722 -3.34887 34404 ft 383 kts 277°
2026-04-21 22:33 53.87564 -3.43373 34235 ft 385 kts 277°
2026-04-21 22:33 53.89426 -3.51894 34065 ft 386 kts 277°
2026-04-21 22:34 53.91287 -3.60441 33893 ft 387 kts 277°
2026-04-21 22:34 53.93131 -3.69007 33723 ft 387 kts 276°
2026-04-21 22:35 53.94967 -3.77590 33553 ft 387 kts 276°
2026-04-21 22:35 53.97202 -3.86068 33375 ft 404 kts 286°
2026-04-21 22:35 53.98611 -3.90218 33027 ft 408 kts 286°
2026-04-21 22:36 54.01445 -3.98572 31956 ft 405 kts 286°
2026-04-21 22:36 54.02846 -4.02710 31451 ft 402 kts 286°
2026-04-21 22:36 54.04234 -4.06830 30941 ft 400 kts 286°
2026-04-21 22:37 54.05611 -4.10935 30454 ft 398 kts 286°
2026-04-21 22:37 54.07112 -4.14947 29965 ft 406 kts 292°
2026-04-21 22:37 54.08736 -4.18863 29485 ft 404 kts 292°
2026-04-21 22:37 54.10356 -4.22755 28998 ft 402 kts 292°
2026-04-21 22:38 54.11966 -4.26630 28509 ft 399 kts 291°
2026-04-21 22:38 54.13561 -4.30486 28044 ft 397 kts 291°
2026-04-21 22:38 54.15147 -4.34330 27592 ft 395 kts 291°
2026-04-21 22:38 54.16725 -4.38149 27144 ft 393 kts 291°
2026-04-21 22:39 54.18293 -4.41945 26707 ft 390 kts 291°
2026-04-21 22:39 54.19871 -4.45776 26277 ft 388 kts 291°
2026-04-21 22:39 54.21416 -4.49548 25852 ft 386 kts 291°
2026-04-21 22:39 54.22924 -4.53240 25459 ft 383 kts 291°
2026-04-21 22:40 54.24463 -4.56998 25063 ft 380 kts 291°
2026-04-21 22:40 54.25974 -4.60682 24665 ft 377 kts 291°
2026-04-21 22:40 54.27472 -4.64342 24288 ft 374 kts 290°
2026-04-21 22:40 54.28954 -4.67978 23911 ft 371 kts 290°
2026-04-21 22:41 54.30421 -4.71588 23531 ft 368 kts 290°
2026-04-21 22:41 54.31870 -4.75165 23163 ft 364 kts 290°
2026-04-21 22:41 54.33306 -4.78706 22803 ft 360 kts 290°
2026-04-21 22:41 54.34724 -4.82205 22436 ft 355 kts 290°
2026-04-21 22:42 54.36116 -4.85628 22070 ft 347 kts 290°
2026-04-21 22:42 54.37487 -4.89021 21715 ft 346 kts 289°
2026-04-21 22:42 54.38848 -4.92417 21351 ft 345 kts 289°
2026-04-21 22:42 54.40203 -4.95809 20975 ft 344 kts 289°
2026-04-21 22:43 54.41097 -4.98056 20730 ft 343 kts 289°
2026-04-21 22:43 54.42443 -5.01434 20352 ft 342 kts 290°
2026-04-21 22:43 54.43785 -5.04795 19981 ft 341 kts 290°
2026-04-21 22:43 54.45134 -5.08159 19597 ft 341 kts 290°
2026-04-21 22:44 54.46490 -5.11518 19218 ft 348 kts 290°
2026-04-21 22:44 54.47896 -5.15053 18807 ft 366 kts 291°
2026-04-21 22:44 54.49354 -5.18693 18387 ft 372 kts 292°
2026-04-21 22:44 54.51015 -5.22190 17955 ft 385 kts 303°
2026-04-21 22:45 54.53084 -5.25216 17469 ft 394 kts 311°
2026-04-21 22:45 54.55252 -5.28098 16960 ft 393 kts 311°
2026-04-21 22:45 54.57403 -5.30986 16486 ft 390 kts 311°
2026-04-21 22:45 54.59532 -5.33869 16005 ft 388 kts 311°
2026-04-21 22:46 54.61647 -5.36752 15513 ft 385 kts 311°
2026-04-21 22:46 54.63738 -5.39614 15001 ft 383 kts 311°
2026-04-21 22:46 54.65817 -5.42461 14497 ft 380 kts 312°
2026-04-21 22:46 54.67907 -5.45333 13991 ft 378 kts 312°
2026-04-21 22:47 54.69943 -5.48130 13491 ft 368 kts 312°
2026-04-21 22:47 54.71941 -5.50864 13007 ft 365 kts 313°
2026-04-21 22:47 54.73917 -5.53569 12539 ft 358 kts 313°
2026-04-21 22:47 54.75818 -5.56158 12372 ft 335 kts 312°
2026-04-21 22:48 54.77594 -5.58578 12184 ft 317 kts 312°
2026-04-21 22:48 54.79312 -5.60921 11926 ft 313 kts 315°
2026-04-21 22:48 54.81289 -5.62608 11676 ft 327 kts 342°
2026-04-21 22:48 54.83564 -5.62748 11434 ft 330 kts 12°
2026-04-21 22:49 54.85643 -5.61247 11327 ft 321 kts 41°
2026-04-21 22:49 54.87168 -5.58566 11344 ft 307 kts 66°
2026-04-21 22:49 54.87964 -5.55336 11344 ft 276 kts 90°
2026-04-21 22:49 54.88057 -5.52153 11345 ft 255 kts 110°
2026-04-21 22:50 54.87598 -5.49301 11341 ft 239 kts 127°
2026-04-21 22:50 54.86726 -5.46951 11338 ft 226 kts 143°
2026-04-21 22:50 54.85608 -5.45097 11348 ft 221 kts 149°
2026-04-21 22:50 54.84416 -5.43428 11339 ft 219 kts 151°
2026-04-21 22:51 54.83211 -5.41828 11342 ft 218 kts 152°
2026-04-21 22:51 54.81997 -5.40232 11345 ft 219 kts 152°
2026-04-21 22:51 54.80786 -5.38628 11345 ft 219 kts 151°
2026-04-21 22:51 54.79577 -5.37012 11350 ft 220 kts 151°
2026-04-21 22:52 54.78316 -5.35572 11349 ft 214 kts 161°
2026-04-21 22:52 54.76942 -5.34712 11349 ft 208 kts 173°
2026-04-21 22:52 54.75522 -5.34496 11342 ft 204 kts 185°
2026-04-21 22:52 54.74126 -5.34910 11342 ft 204 kts 197°
2026-04-21 22:53 54.72831 -5.35931 11349 ft 206 kts 209°
2026-04-21 22:53 54.71715 -5.37521 11343 ft 211 kts 221°
2026-04-21 22:53 54.70857 -5.39612 11343 ft 218 kts 234°
2026-04-21 22:53 54.70334 -5.42132 11347 ft 229 kts 248°
2026-04-21 22:54 54.70242 -5.44951 11345 ft 243 kts 264°
2026-04-21 22:54 54.70671 -5.47871 11349 ft 261 kts 283°
2026-04-21 22:54 54.71684 -5.50578 11345 ft 278 kts 304°
2026-04-21 22:54 54.73203 -5.52770 11351 ft 287 kts 313°
2026-04-21 22:55 54.74783 -5.54889 11341 ft 287 kts 313°
2026-04-21 22:55 54.76357 -5.57012 11342 ft 287 kts 313°
2026-04-21 22:55 54.77934 -5.59151 11340 ft 288 kts 313°
2026-04-21 22:55 54.79525 -5.61259 11347 ft 291 kts 320°
2026-04-21 22:56 54.81448 -5.62527 11343 ft 304 kts 351°
2026-04-21 22:56 54.83556 -5.62196 11342 ft 307 kts 22°
2026-04-21 22:56 54.85344 -5.60313 11349 ft 297 kts 53°
2026-04-21 22:56 54.86456 -5.57446 11352 ft 280 kts 80°
2026-04-21 22:57 54.86799 -5.54265 11351 ft 259 kts 104°
2026-04-21 22:57 54.86476 -5.51324 11235 ft 239 kts 123°
2026-04-21 22:57 54.85661 -5.48953 10783 ft 223 kts 138°
2026-04-21 22:57 54.84546 -5.47131 10270 ft 219 kts 142°
2026-04-21 22:58 54.83351 -5.45477 9716 ft 221 kts 141°
2026-04-21 22:58 54.82121 -5.43853 9121 ft 224 kts 140°
2026-04-21 22:58 54.80870 -5.42207 8532 ft 227 kts 139°
2026-04-21 22:58 54.79619 -5.40548 8040 ft 225 kts 139°
2026-04-21 22:59 54.78386 -5.38971 7933 ft 221 kts 145°
2026-04-21 22:59 54.76946 -5.37901 7989 ft 230 kts 162°
2026-04-21 22:59 54.75331 -5.37679 8049 ft 239 kts 182°
2026-04-21 22:59 54.73761 -5.38638 8119 ft 245 kts 210°
2026-04-21 23:00 54.72566 -5.40774 8184 ft 251 kts 229°
2026-04-21 23:00 54.71529 -5.43208 8262 ft 251 kts 230°
2026-04-21 23:00 54.70499 -5.45653 8256 ft 253 kts 230°
2026-04-21 23:00 54.69466 -5.48103 8128 ft 251 kts 230°
2026-04-21 23:01 54.68438 -5.50534 8003 ft 250 kts 230°
2026-04-21 23:01 54.67413 -5.52951 7877 ft 250 kts 229°
2026-04-21 23:01 54.66386 -5.55366 7751 ft 249 kts 229°
2026-04-21 23:01 54.65341 -5.57813 7626 ft 249 kts 229°
2026-04-21 23:02 54.64314 -5.60217 7491 ft 248 kts 229°
2026-04-21 23:02 54.63291 -5.62610 7378 ft 248 kts 229°
2026-04-21 23:02 54.62264 -5.65002 7247 ft 248 kts 229°
2026-04-21 23:02 54.61232 -5.67403 7129 ft 256 kts 229°
2026-04-21 23:03 54.60145 -5.69920 6999 ft 265 kts 229°
2026-04-21 23:03 54.59043 -5.72487 6880 ft 266 kts 229°
2026-04-21 23:03 54.57942 -5.75052 6753 ft 266 kts 229°
2026-04-21 23:03 54.56841 -5.77616 6624 ft 266 kts 229°
2026-04-21 23:04 54.55735 -5.80180 6500 ft 267 kts 229°
2026-04-21 23:04 54.54626 -5.82747 6367 ft 266 kts 229°
2026-04-21 23:04 54.53524 -5.85295 6248 ft 265 kts 228°
2026-04-21 23:04 54.52428 -5.87834 6123 ft 264 kts 228°
2026-04-21 23:05 54.51328 -5.90379 5913 ft 266 kts 228°
2026-04-21 23:05 54.50234 -5.92914 5483 ft 262 kts 228°
2026-04-21 23:05 54.49152 -5.95420 5031 ft 260 kts 228°
2026-04-21 23:05 54.48074 -5.97904 4581 ft 259 kts 227°
2026-04-21 23:06 54.46996 -6.00380 4143 ft 257 kts 227°
2026-04-21 23:06 54.45929 -6.02833 4072 ft 258 kts 227°
2026-04-21 23:06 54.44847 -6.05310 3986 ft 260 kts 228°
2026-04-21 23:06 54.43763 -6.07798 3886 ft 260 kts 227°
2026-04-21 23:07 54.42684 -6.10277 3781 ft 259 kts 227°
2026-04-21 23:07 54.41612 -6.12768 3716 ft 259 kts 228°
2026-04-21 23:07 54.40550 -6.15251 3641 ft 253 kts 228°
2026-04-21 23:07 54.39549 -6.17605 3583 ft 238 kts 228°
2026-04-21 23:08 54.38574 -6.19890 3532 ft 237 kts 227°
2026-04-21 23:08 54.37641 -6.22237 3473 ft 241 kts 241°
2026-04-21 23:08 54.37450 -6.25070 3541 ft 237 kts 293°
2026-04-21 23:08 54.38311 -6.27432 3602 ft 231 kts 328°
2026-04-21 23:09 54.39696 -6.28135 3441 ft 191 kts 20°
2026-04-21 23:09 54.40737 -6.27174 3271 ft 157 kts 53°
2026-04-21 23:09 54.41403 -6.25740 3294 ft 153 kts 62°
2026-04-21 23:09 54.42011 -6.24226 3571 ft 155 kts 63°
2026-04-21 23:10 54.42602 -6.22655 3821 ft 159 kts 64°
2026-04-21 23:10 54.43178 -6.21068 4170 ft 157 kts 64°
2026-04-21 23:10 54.43756 -6.19449 4471 ft 160 kts 65°
2026-04-21 23:10 54.44326 -6.17796 4683 ft 162 kts 66°
2026-04-21 23:11 54.44894 -6.16108 4598 ft 163 kts 67°
2026-04-21 23:11 54.45446 -6.14435 4355 ft 160 kts 67°
2026-04-21 23:11 54.45986 -6.12770 4099 ft 159 kts 68°
2026-04-21 23:11 54.46515 -6.11108 3844 ft 157 kts 67°
2026-04-21 23:12 54.47032 -6.09464 3712 ft 156 kts 68°
2026-04-21 23:12 54.47543 -6.07823 3488 ft 152 kts 67°
2026-04-21 23:12 54.48066 -6.06328 3255 ft 141 kts 64°
2026-04-21 23:12 54.48610 -6.04969 3053 ft 135 kts 63°
2026-04-21 23:13 54.49136 -6.03657 2990 ft 132 kts 64°
2026-04-21 23:13 54.49674 -6.02365 2923 ft 136 kts 60°
2026-04-21 23:13 54.50302 -6.01163 2662 ft 135 kts 52°
2026-04-21 23:13 54.51014 -6.00085 2405 ft 135 kts 43°
2026-04-21 23:14 54.51780 -5.99178 2211 ft 132 kts 40°
2026-04-21 23:14 54.52530 -5.98297 2036 ft 132 kts 40°
2026-04-21 23:14 54.53292 -5.97396 1836 ft 131 kts 40°
2026-04-21 23:14 54.54039 -5.96500 1692 ft 131 kts 39°
2026-04-21 23:15 54.54781 -5.95623 1533 ft 131 kts 38°
2026-04-21 23:15 54.55533 -5.94731 1386 ft 131 kts 38°
2026-04-21 23:15 54.56291 -5.93823 1212 ft 130 kts 37°
2026-04-21 23:15 54.57035 -5.92933 1035 ft 130 kts 37°
2026-04-21 23:16 54.57780 -5.92056 842 ft 130 kts 37°
2026-04-21 23:16 54.58524 -5.91181 698 ft 129 kts 37°
2026-04-21 23:16 54.59268 -5.90305 534 ft 130 kts 37°
2026-04-21 23:16 54.59761 -5.89702 410 ft 130 kts 38°
2026-04-21 23:17 54.60508 -5.88816 237 ft 131 kts 35°
2026-04-21 23:17 54.61253 -5.87920 50 ft 130 kts 37°
2026-04-21 23:17 54.61914 -5.87123 18 ft 87 kts 34°
2026-04-21 23:17 54.62203 -5.86778 20 ft 37 kts 35°
2026-04-21 23:18 54.62352 -5.86602 21 ft 14 kts 34°
2026-04-21 23:18 54.62419 -5.86466 21 ft 17 kts 65°
2026-04-21 23:18 54.62454 -5.86506 20 ft 14 kts 223°
2026-04-21 23:18 54.62305 -5.86661 20 ft 43 kts 214°
2026-04-21 23:19 54.62035 -5.86980 17 ft 49 kts 214°
2026-04-21 23:19 54.61847 -5.87169 18 ft 16 kts 168°
2026-04-21 23:19 54.61817 -5.87129 17 ft 1 kts 132°
2026-04-21 23:19 54.61805 -5.87103 18 ft 3 kts 128°
2026-04-21 23:20 54.61796 -5.87082 19 ft 2 kts 126°
2026-04-21 23:20 54.61785 -5.87055 20 ft 5 kts 126°
2026-04-21 23:20 54.61752 -5.86992 21 ft 9 kts 149°
2026-04-21 23:20 54.61685 -5.87039 21 ft 12 kts 214°
2026-04-21 23:21 54.61615 -5.87123 21 ft 1 kts 214°
2026-04-21 23:21 54.61612 -5.87125 21 ft 2 kts 214°
2026-04-21 23:21 54.61572 -5.87175 23 ft 9 kts 215°
2026-04-21 23:21 54.61529 -5.87223 21 ft 5 kts 203°
2026-04-21 23:22 54.61496 -5.87215 21 ft 5 kts 156°
2026-04-21 23:22 54.61471 -5.87195 23 ft 1 kts 156°
2026-04-21 23:22 54.61465 -5.87190 21 ft 1 kts 156°
2026-04-21 23:22 54.61462 -5.87188 22 ft 0 kts 156°